This is the latest recevied weather packets stored in our database for station/object SP2FH-13. If no packets are shown the sender has not sent any weather packets the latest 10 day(s).
| Time | Temp. | Humidity | Pressure | Rain* | Wind** | Luminosity | Snow |
|---|---|---|---|---|---|---|---|
| 1777456661 | 7.78° C | 42% | 1018.2 hPa | - | - | 221 W/m² | - |
| 1777456360 | 7.78° C | 40% | 1018.2 hPa | - | - | 584 W/m² | - |
| 1777455455 | 7.22° C | 40% | 1018 hPa | - | - | 851 W/m² | - |
| 1777455155 | 7.78° C | 41% | 1018.1 hPa | - | - | 189 W/m² | - |
| 1777454853 | 7.78° C | 38% | 1018 hPa | - | - | 202 W/m² | - |
| 1777454552 | 7.78° C | 39% | 1018 hPa | - | - | 276 W/m² | - |
| 1777454251 | 8.89° C | 37% | 1018 hPa | - | - | 421 W/m² | - |
| 1777453949 | 8.89° C | 37% | 1018 hPa | - | - | 492 W/m² | - |
| 1777453648 | 7.78° C | 37% | 1018 hPa | - | - | 784 W/m² | - |
| 1777453347 | 7.22° C | 39% | 1018.1 hPa | - | - | 697 W/m² | - |
| 1777453046 | 7.22° C | 38% | 1018.1 hPa | - | - | 277 W/m² | - |
| 1777452745 | 8.33° C | 37% | 1018.1 hPa | - | - | 544 W/m² | - |
| 1777452445 | 7.78° C | 38% | 1018 hPa | - | - | 683 W/m² | - |
| 1777452143 | 7.78° C | 39% | 1018.1 hPa | - | - | 729 W/m² | - |
| 1777451842 | 7.78° C | 39% | 1018.1 hPa | - | - | 469 W/m² | - |
| 1777451540 | 7.78° C | 41% | 1018 hPa | - | - | 697 W/m² | - |
| 1777451239 | 7.78° C | 40% | 1018.1 hPa | - | - | 744 W/m² | - |
| 1777450938 | 7.22° C | 40% | 1018.1 hPa | - | - | 475 W/m² | - |
| 1777450637 | 7.22° C | 39% | 1018 hPa | - | - | 673 W/m² | - |
| 1777450335 | 7.22° C | 39% | 1018 hPa | - | - | 711 W/m² | - |
| 1777450034 | 7.78° C | 37% | 1018.1 hPa | - | - | 669 W/m² | - |
| 1777449733 | 7.22° C | 40% | 1018.1 hPa | - | - | 636 W/m² | - |
| 1777449433 | 6.67° C | 39% | 1017.9 hPa | - | - | 631 W/m² | - |
| 1777449131 | 7.22° C | 39% | 1018 hPa | - | - | 616 W/m² | - |
| 1777448831 | 6.67° C | 39% | 1017.9 hPa | - | - | 610 W/m² | - |
* Rain since midnight (hover to see other rain measurements)
** Current wind speed in m/s (hover to see current wind gust speed)